Find Starlink 38261

NORAD ID: 100309 Int'l Des: 2026-184 Owner: SPXS Country: US Constellation: starlink operational

当前视图

正在加载3D地球...

About Starlink 38261

Starlink 38261 (NORAD 100309) is a starlink constellation satellite launched Aug 12, 2026 by SPXS of US. with a mass of 575.00 kg.

即将过境

Passes for default location (London). Set your location on the main map for personalized predictions.

高度历史

Loading altitude history...

两行轨道根数

1 A0309U 26184J 26262.88230712 .00010482 00000-0 32647-3 0 9992
2 A0309 97.2842 127.9787 0001925 93.9289 266.2174 15.33451510 7265
Epoch: Sep 19, 2026 • Age: 21 hours

当前状态

高度 468.2 km
远地点 / 近地点 N/A
速度 7.63 km/s
星下点 26.41°N, 39.79°E
发射日期 Aug 12, 2026
运行时间 0.1 years
类型 internet

技术详情

分类 Payload
质量 575.00 kg
干质量 530.00 kg
长度 0.30 m
跨度 29.00 m
形状 ? Box + pan
制造商 SPXS
平台类型 Starlink V2MO
阶段状态 In Orbit
所有者/国家 SPXS/US

Most Searched